Skip Page Navigation
NASA JPL Caltech
NASA Logo - Jet Propulsion Laboratory + View the NASA Portal
+ Center for Near-Earth Object Studies
JPL Home Earth Solar System Stars & Galaxies Technology
JPL Solar System Dynamics
BODIES ORBITS EPHEMERIDES TOOLS PHYSICAL DATA DISCOVERY FAQ SITE MAP
JPL Small-Body Database Browser
Search: [ help ]  
34593 (2000 TD19)
Classification: Main-belt Asteroid          SPK-ID: 2034593
Ephemeris | Orbit Diagram | Orbital Elements | Mission Design | Physical Parameters | Discovery Circumstances | Close-Approach Data ]

[ show orbit diagram ]
Orbital Elements at Epoch 2459000.5 (2020-May-31.0) TDB
Reference: JPL 23 (heliocentric ecliptic J2000)
 Element Value Uncertainty (1-sigma)   Units 
e .1073874610640646 4.8062e-08  
a 3.012431188971517 2.0488e-08 au
q 2.688933851957664 1.4516e-07 au
i 11.50501098166383 4.1789e-06 deg
node 126.837944669625 2.7377e-05 deg
peri 246.5571260088884 3.4259e-05 deg
M 265.0640374454049 2.3484e-05 deg
tp 2459504.119325736892
(2021-Oct-16.61932574)
0.00012715 TDB
period 1909.739495831398
5.23
1.9483e-05
5.334e-08
d
yr
n .1885073858428399 1.9231e-09 deg/d
Q 3.335928525985369 2.2688e-08 au
  Orbit Determination Parameters
   # obs. used (total)      1337  
   data-arc span      8594 days (23.53 yr)  
   first obs. used      1996-12-07  
   last obs. used      2020-06-18  
   planetary ephem.      DE431  
   SB-pert. ephem.      SB431-N16  
   condition code      0  
   norm. resid. RMS      .50286  
   source      ORB  
   producer      Otto Matic  
   solution date      2020-Jun-23 20:23:45  

Additional Information
 Earth MOID = 1.71292 au 
 Jupiter MOID = 2.17102 au 
 T_jup = 3.210 
[ show covariance matrix ]

Ephemeris | Orbit Diagram | Orbital Elements | Mission Design | Physical Parameters | Discovery Circumstances | Close-Approach Data ]

Physical Parameter Table
Parameter Symbol Value Units Sigma Reference Notes
absolute magnitude H 13.5   n/a MPO395333  
diameter diameter 6.451 km 0.286 urn:nasa:pds:neowise_diameters_albedos::2.0[mainbelt] (http://adsabs.harvard.edu/abs/2011ApJ...741...68M)  
geometric albedo albedo 0.203   0.079 urn:nasa:pds:neowise_diameters_albedos::2.0[mainbelt] (http://adsabs.harvard.edu/abs/2011ApJ...741...68M)  

34593 (2000 TD19)          Discovered 2000-Oct-01 by LINEAR at Socorro
Reference: 20020128/Numbers.arcLast Updated: 2004-04-19

[ show close-approach data ]
Alternate Designations
 2000 TD19 = 1999 LO13 = 1999 NL64 
Ephemeris | Orbit Diagram | Orbital Elements | Mission Design | Physical Parameters | Discovery Circumstances | Close-Approach Data ]
ABOUT SSD CREDITS/AWARDS PRIVACY/COPYRIGHT GLOSSARY LINKS
FirstGov 2020-Oct-25 23:39 UT
(server date/time)  
NASA Home Page
Site Manager:   Ryan S. Park
Webmaster  Alan B. Chamberlin